Time,TemperatureF,DewpointF,PressureIn,WindDirection,WindDirectionDegrees,WindSpeedMPH,WindSpeedGustMPH,Humidity,HourlyPrecipIn,Conditions,Clouds,dailyrainin,SolarRadiationWatts/m^2,SoftwareType,DateUTC
2013-01-16 00:04:00,33.7,31.4,30.67,ESE,107,0.0,0.0,91,0.00,OVC,,0.00,0.0,WeatherDisplay:10.37,2013-01-16 08:04:00,
2013-01-16 00:09:00,33.8,31.5,30.67,ESE,107,2.3,3.5,91,0.00,OVC,,0.00,0.0,WeatherDisplay:10.37,2013-01-16 08:09:00,
2013-01-16 00:14:00,33.7,31.1,30.67,ESE,107,1.1,2.3,90,0.00,OVC,,0.00,0.0,WeatherDisplay:10.37,2013-01-16 08:14:00,
2013-01-16 00:19:00,33.7,31.1,30.67,ESE,107,0.0,0.0,90,0.00,OVC,,0.00,0.0,WeatherDisplay:10.37,2013-01-16 08:19:00,
2013-01-16 00:24:00,33.7,31.1,30.67,ESE,107,0.4,1.1,90,0.00,OVC,,0.00,0.0,WeatherDisplay:10.37,2013-01-16 08:24:00,
2013-01-16 00:29:00,33.7,31.1,30.67,ESE,107,1.5,2.3,90,0.00,OVC,,0.00,0.0,WeatherDisplay:10.37,2013-01-16 08:29:00,
2013-01-16 00:34:00,33.7,31.1,30.67,ESE,107,1.1,2.3,90,0.00,OVC,,0.00,0.0,WeatherDisplay:10.37,2013-01-16 08:34:00,
2013-01-16 00:39:00,33.7,31.1,30.67,ESE,107,0.0,0.0,90,0.00,OVC,,0.00,0.0,WeatherDisplay:10.37,2013-01-16 08:39:00,
2013-01-16 00:44:00,33.7,31.1,30.67,ESE,107,0.0,1.1,90,0.00,OVC,,0.00,0.0,WeatherDisplay:10.37,2013-01-16 08:44:00,
2013-01-16 00:49:00,33.8,31.2,30.67,ESE,107,0.2,1.1,90,0.00,OVC,,0.00,0.0,WeatherDisplay:10.37,2013-01-16 08:49:00,
2013-01-16 00:54:00,33.8,31.2,30.67,ESE,120,3.8,4.6,90,0.00,OVC,,0.00,0.0,WeatherDisplay:10.37,2013-01-16 08:54:00,
2013-01-16 00:59:00,33.8,31.2,30.67,ESE,119,3.6,4.6,90,0.00,OVC,,0.00,0.0,WeatherDisplay:10.37,2013-01-16 08:59:00,
2013-01-16 01:04:00,33.8,31.2,30.67,ESE,119,0.0,2.3,90,0.00,OVC,,0.00,0.0,WeatherDisplay:10.37,2013-01-16 09:04:00,
2013-01-16 01:09:00,33.8,31.2,30.67,ESE,120,4.9,5.8,90,0.00,OVC,,0.00,0.0,WeatherDisplay:10.37,2013-01-16 09:09:00,
2013-01-16 01:14:00,33.8,31.2,30.67,East,99,3.7,4.6,90,0.00,OVC,,0.00,0.0,WeatherDisplay:10.37,2013-01-16 09:14:00,
2013-01-16 01:19:00,33.8,31.2,30.67,East,96,3.9,4.6,90,0.00,OVC,,0.00,0.0,WeatherDisplay:10.37,2013-01-16 09:19:00,
2013-01-16 01:24:00,33.7,31.1,30.67,ESE,103,3.8,5.8,90,0.00,OVC,,0.00,0.0,WeatherDisplay:10.37,2013-01-16 09:24:00,
2013-01-16 01:29:00,33.8,31.2,30.67,ESE,103,1.9,3.5,90,0.00,OVC,,0.00,0.0,WeatherDisplay:10.37,2013-01-16 09:29:00,
2013-01-16 01:34:00,33.7,31.1,30.67,ESE,103,2.6,3.5,90,0.00,OVC,,0.00,0.0,WeatherDisplay:10.37,2013-01-16 09:34:00,
2013-01-16 01:39:00,33.7,31.1,30.67,ESE,103,2.6,3.5,90,0.00,OVC,,0.00,0.0,WeatherDisplay:10.37,2013-01-16 09:39:00,
2013-01-16 01:44:00,33.7,31.1,30.67,ESE,103,4.0,4.6,90,0.00,OVC,,0.00,0.0,WeatherDisplay:10.37,2013-01-16 09:44:00,
2013-01-16 01:49:00,33.7,31.1,30.67,East,100,2.4,3.5,90,0.00,OVC,,0.00,0.0,WeatherDisplay:10.37,2013-01-16 09:49:00,
2013-01-16 01:54:00,33.7,31.1,30.67,East,100,1.5,3.5,90,0.00,OVC,,0.00,0.0,WeatherDisplay:10.37,2013-01-16 09:54:00,
2013-01-16 01:59:00,33.7,31.1,30.67,East,100,1.9,3.5,90,0.00,OVC,,0.00,0.0,WeatherDisplay:10.37,2013-01-16 09:59:00,
2013-01-16 02:04:00,33.7,31.1,30.68,East,100,0.0,0.0,90,0.00,OVC,,0.00,0.0,WeatherDisplay:10.37,2013-01-16 10:04:00,
2013-01-16 02:09:00,33.7,31.1,30.68,East,100,2.2,2.3,90,0.00,OVC,,0.00,0.0,WeatherDisplay:10.37,2013-01-16 10:09:00,
2013-01-16 02:14:00,33.7,31.1,30.68,ESE,117,3.9,4.6,90,0.00,OVC,,0.00,0.0,WeatherDisplay:10.37,2013-01-16 10:14:00,
2013-01-16 02:19:00,33.7,31.1,30.68,ESE,114,4.8,5.8,90,0.00,OVC,,0.00,0.0,WeatherDisplay:10.37,2013-01-16 10:19:00,
2013-01-16 02:24:00,33.7,31.1,30.67,SE,134,5.0,5.0,90,0.00,OVC,,0.00,0.0,WeatherDisplay:10.37,2013-01-16 10:24:00,
2013-01-16 02:29:00,33.6,31.0,30.67,SE,129,3.4,4.6,90,0.00,OVC,,0.00,0.0,WeatherDisplay:10.37,2013-01-16 10:29:00,
2013-01-16 02:34:00,33.6,31.0,30.67,ESE,123,3.4,3.5,90,0.00,OVC,,0.00,0.0,WeatherDisplay:10.37,2013-01-16 10:34:00,
2013-01-16 02:39:00,33.6,31.0,30.67,ESE,115,3.6,4.6,90,0.00,OVC,,0.00,0.0,WeatherDisplay:10.37,2013-01-16 10:39:00,
2013-01-16 02:44:00,33.6,31.0,30.68,SE,125,2.6,4.6,90,0.00,OVC,,0.00,0.0,WeatherDisplay:10.37,2013-01-16 10:44:00,
2013-01-16 02:49:00,33.6,31.0,30.68,SE,124,2.5,3.5,90,0.00,OVC,,0.00,0.0,WeatherDisplay:10.37,2013-01-16 10:49:00,
2013-01-16 02:54:00,33.5,30.9,30.68,ESE,121,2.9,3.5,90,0.00,OVC,,0.00,0.0,WeatherDisplay:10.37,2013-01-16 10:54:00,
2013-01-16 02:59:00,33.6,31.0,30.68,ESE,121,1.4,3.5,90,0.00,OVC,,0.00,0.0,WeatherDisplay:10.37,2013-01-16 10:59:00,
2013-01-16 03:04:00,33.6,31.0,30.68,ESE,121,0.0,0.0,90,0.00,OVC,,0.00,0.0,WeatherDisplay:10.37,2013-01-16 11:04:00,
2013-01-16 03:09:00,33.6,31.3,30.68,ESE,121,0.3,0.0,91,0.00,OVC,,0.00,0.0,WeatherDisplay:10.37,2013-01-16 11:09:00,
2013-01-16 03:14:00,33.6,31.0,30.67,ESE,121,1.5,3.4,90,0.00,OVC,,0.00,0.0,WeatherDisplay:10.37,2013-01-16 11:14:00,
2013-01-16 03:19:00,33.6,31.3,30.67,ESE,121,2.9,3.5,91,0.00,OVC,,0.00,0.0,WeatherDisplay:10.37,2013-01-16 11:19:00,
2013-01-16 03:24:00,33.6,31.3,30.67,ESE,123,4.1,4.6,91,0.00,OVC,,0.00,0.0,WeatherDisplay:10.37,2013-01-16 11:24:00,
2013-01-16 03:29:00,33.6,31.3,30.67,ESE,107,5.1,5.8,91,0.00,OVC,,0.00,0.0,WeatherDisplay:10.37,2013-01-16 11:29:00,
2013-01-16 03:34:00,33.6,31.0,30.67,ESE,103,4.8,6.9,90,0.00,OVC,,0.00,0.0,WeatherDisplay:10.37,2013-01-16 11:34:00,
2013-01-16 03:39:00,33.5,30.9,30.67,ESE,113,1.7,4.6,90,0.00,OVC,,0.00,0.0,WeatherDisplay:10.37,2013-01-16 11:39:00,
2013-01-16 03:44:00,33.5,31.2,30.67,East,82,4.5,5.8,91,0.00,OVC,,0.00,0.0,WeatherDisplay:10.37,2013-01-16 11:44:00,
2013-01-16 03:49:00,33.4,31.1,30.67,East,91,4.3,4.6,91,0.00,OVC,,0.00,0.0,WeatherDisplay:10.37,2013-01-16 11:49:00,
2013-01-16 03:54:00,33.5,31.2,30.67,ESE,115,1.8,3.5,91,0.00,OVC,,0.00,0.0,WeatherDisplay:10.37,2013-01-16 11:54:00,
2013-01-16 03:55:00,33.1,30.5,30.65,SE,135,6.0,7.0,90,0.00,CLR,,0.00,0.0,WeatherDisplay:10.37,2013-01-16 11:55:00,
2013-01-16 03:59:00,33.5,31.2,30.67,ESE,122,3.2,3.5,91,0.00,OVC,,0.00,0.0,WeatherDisplay:10.37,2013-01-16 11:59:00,
2013-01-16 04:04:00,33.5,31.2,30.67,SE,125,0.6,2.2,91,0.00,OVC,,0.00,0.0,WeatherDisplay:10.37,2013-01-16 12:04:00,
2013-01-16 04:10:00,33.5,31.2,30.67,SE,125,1.5,2.3,91,0.00,OVC,,0.00,0.0,WeatherDisplay:10.37,2013-01-16 12:10:00,
2013-01-16 04:15:00,33.5,31.2,30.67,ESE,118,2.2,3.4,91,0.00,OVC,,0.00,0.0,WeatherDisplay:10.37,2013-01-16 12:15:00,
2013-01-16 04:20:00,33.5,31.2,30.67,ESE,111,2.2,3.5,91,0.00,OVC,,0.00,0.0,WeatherDisplay:10.37,2013-01-16 12:20:00,
2013-01-16 04:25:00,33.5,31.2,30.66,ESE,117,3.4,4.6,91,0.00,OVC,,0.00,0.0,WeatherDisplay:10.37,2013-01-16 12:25:00,
2013-01-16 04:30:00,33.5,30.9,30.66,ESE,117,2.9,4.6,90,0.00,OVC,,0.00,0.0,WeatherDisplay:10.37,2013-01-16 12:30:00,
2013-01-16 04:35:00,33.4,30.8,30.66,ESE,117,1.5,3.5,90,0.00,OVC,,0.00,0.0,WeatherDisplay:10.37,2013-01-16 12:35:00,
2013-01-16 04:40:00,33.5,30.9,30.66,SE,138,4.6,4.6,90,0.00,OVC,,0.00,0.0,WeatherDisplay:10.37,2013-01-16 12:40:00,
2013-01-16 04:45:00,33.4,30.8,30.65,SE,136,6.3,6.9,90,0.00,OVC,,0.00,0.0,WeatherDisplay:10.37,2013-01-16 12:45:00,
2013-01-16 04:50:00,33.2,30.6,30.65,SE,134,6.0,6.9,90,0.00,OVC,,0.00,0.0,WeatherDisplay:10.37,2013-01-16 12:50:00,
2013-01-16 04:57:00,33.0,30.4,30.65,SE,142,6.6,6.9,90,0.00,OVC,,0.00,0.0,WeatherDisplay:10.37,2013-01-16 12:57:00,
2013-01-16 05:02:00,33.0,30.4,30.65,ESE,119,6.4,6.9,90,0.00,OVC,,0.00,0.0,WeatherDisplay:10.37,2013-01-16 13:02:00,
2013-01-16 05:07:00,32.9,30.3,30.65,ESE,116,5.4,5.8,90,0.00,OVC,,0.00,0.0,WeatherDisplay:10.37,2013-01-16 13:07:00,
2013-01-16 05:12:00,32.8,30.2,30.65,SE,126,6.0,6.0,90,0.00,OVC,,0.00,0.0,WeatherDisplay:10.37,2013-01-16 13:12:00,
2013-01-16 05:17:00,32.8,30.5,30.65,SE,130,5.3,5.6,91,0.00,OVC,,0.00,0.0,WeatherDisplay:10.37,2013-01-16 13:17:00,
2013-01-16 05:22:00,32.8,30.5,30.64,SE,129,2.8,4.6,91,0.00,OVC,,0.00,0.0,WeatherDisplay:10.37,2013-01-16 13:22:00,
2013-01-16 05:27:00,32.8,30.5,30.64,ESE,123,2.9,3.5,91,0.00,OVC,,0.00,0.0,WeatherDisplay:10.37,2013-01-16 13:27:00,
2013-01-16 05:32:00,32.8,30.5,30.64,SE,125,3.1,4.6,91,0.00,OVC,,0.00,0.0,WeatherDisplay:10.37,2013-01-16 13:32:00,
2013-01-16 05:37:00,32.8,30.5,30.64,SE,125,0.2,2.3,91,0.00,OVC,,0.00,0.0,WeatherDisplay:10.37,2013-01-16 13:37:00,
2013-01-16 05:42:00,32.9,30.6,30.64,SE,125,1.7,4.6,91,0.00,OVC,,0.00,0.0,WeatherDisplay:10.37,2013-01-16 13:42:00,
2013-01-16 05:47:00,32.9,30.6,30.64,SE,125,0.0,0.0,91,0.00,OVC,,0.00,0.0,WeatherDisplay:10.37,2013-01-16 13:47:00,
2013-01-16 05:52:00,32.9,30.6,30.64,SE,125,0.0,0.0,91,0.00,OVC,,0.00,0.0,WeatherDisplay:10.37,2013-01-16 13:52:00,
2013-01-16 05:57:00,32.9,30.6,30.64,SE,125,0.0,0.0,91,0.00,OVC,,0.00,0.0,WeatherDisplay:10.37,2013-01-16 13:57:00,
2013-01-16 06:03:00,32.9,30.6,30.64,SE,125,1.0,3.5,91,0.00,OVC,,0.00,0.0,WeatherDisplay:10.37,2013-01-16 14:03:00,
2013-01-16 06:08:00,32.9,30.6,30.63,East,84,2.8,3.5,91,0.00,OVC,,0.00,0.0,WeatherDisplay:10.37,2013-01-16 14:08:00,
2013-01-16 06:13:00,32.9,30.6,30.63,East,80,2.1,3.5,91,0.00,OVC,,0.00,0.0,WeatherDisplay:10.37,2013-01-16 14:13:00,
2013-01-16 06:18:00,33.0,30.7,30.63,East,80,3.4,4.6,91,0.00,OVC,,0.00,0.0,WeatherDisplay:10.37,2013-01-16 14:18:00,
2013-01-16 06:23:00,33.0,30.7,30.63,East,80,2.0,4.6,91,0.00,OVC,,0.00,0.0,WeatherDisplay:10.37,2013-01-16 14:23:00,
2013-01-16 06:28:00,33.0,30.7,30.63,ENE,78,3.3,4.6,91,0.00,OVC,,0.00,0.0,WeatherDisplay:10.37,2013-01-16 14:28:00,
2013-01-16 06:33:00,33.0,30.7,30.63,East,85,4.9,5.8,91,0.00,OVC,,0.00,0.0,WeatherDisplay:10.37,2013-01-16 14:33:00,
2013-01-16 06:38:00,33.0,30.7,30.63,East,92,7.0,8.1,91,0.00,OVC,,0.00,0.0,WeatherDisplay:10.37,2013-01-16 14:38:00,
2013-01-16 06:43:00,33.1,30.8,30.63,East,87,5.8,6.9,91,0.00,OVC,,0.00,0.0,WeatherDisplay:10.37,2013-01-16 14:43:00,
2013-01-16 06:48:00,33.2,30.9,30.62,East,94,6.5,6.9,91,0.00,OVC,,0.00,0.0,WeatherDisplay:10.37,2013-01-16 14:48:00,
2013-01-16 06:53:00,33.3,31.0,30.62,East,90,8.4,10.4,91,0.00,OVC,,0.00,0.0,WeatherDisplay:10.37,2013-01-16 14:53:00,
2013-01-16 06:58:00,33.3,31.0,30.62,East,90,8.9,10.4,91,0.00,OVC,,0.00,0.0,WeatherDisplay:10.37,2013-01-16 14:58:00,
2013-01-16 07:03:00,33.4,31.1,30.62,East,86,8.7,10.2,91,0.00,OVC,,0.00,0.0,WeatherDisplay:10.37,2013-01-16 15:03:00,
2013-01-16 07:08:00,33.5,31.2,30.62,East,92,8.1,8.1,91,0.00,OVC,,0.00,0.0,WeatherDisplay:10.37,2013-01-16 15:08:00,
2013-01-16 07:13:00,33.6,31.3,30.62,East,83,9.8,10.4,91,0.00,OVC,,0.00,0.0,WeatherDisplay:10.37,2013-01-16 15:13:00,
2013-01-16 07:18:00,33.7,31.4,30.63,East,88,7.3,9.2,91,0.00,OVC,,0.00,0.0,WeatherDisplay:10.37,2013-01-16 15:18:00,
2013-01-16 07:23:00,33.7,31.4,30.63,East,82,6.8,9.2,91,0.00,OVC,,0.00,0.0,WeatherDisplay:10.37,2013-01-16 15:23:00,
2013-01-16 07:28:00,33.8,31.2,30.63,East,89,5.8,6.9,90,0.00,OVC,,0.00,0.0,WeatherDisplay:10.37,2013-01-16 15:28:00,
2013-01-16 07:33:00,33.9,31.3,30.63,East,90,5.7,6.9,90,0.00,OVC,,0.00,0.0,WeatherDisplay:10.37,2013-01-16 15:33:00,
2013-01-16 07:38:00,33.9,31.3,30.63,East,94,2.6,3.5,90,0.00,OVC,,0.00,0.0,WeatherDisplay:10.37,2013-01-16 15:38:00,
2013-01-16 07:43:00,33.9,31.3,30.64,East,93,3.2,3.5,90,0.00,OVC,,0.00,0.0,WeatherDisplay:10.37,2013-01-16 15:43:00,
2013-01-16 07:48:00,34.0,31.4,30.64,East,94,2.6,3.5,90,0.00,OVC,,0.00,0.0,WeatherDisplay:10.37,2013-01-16 15:48:00,
2013-01-16 07:53:00,34.0,31.1,30.64,East,93,0.7,2.3,89,0.00,OVC,,0.00,5.8,WeatherDisplay:10.37,2013-01-16 15:53:00,
2013-01-16 07:58:00,34.0,31.1,30.64,ENE,67,5.3,5.8,89,0.00,OVC,,0.00,5.8,WeatherDisplay:10.37,2013-01-16 15:58:00,
2013-01-16 08:03:00,34.0,31.1,30.64,ENE,68,6.1,6.9,89,0.00,OVC,,0.00,8.0,WeatherDisplay:10.37,2013-01-16 16:03:00,
2013-01-16 08:08:00,34.0,31.1,30.64,ENE,67,4.3,5.8,89,0.00,OVC,,0.00,13.8,WeatherDisplay:10.37,2013-01-16 16:08:00,
2013-01-16 08:13:00,34.0,31.1,30.64,ENE,59,6.1,6.9,89,0.00,OVC,,0.00,18.4,WeatherDisplay:10.37,2013-01-16 16:13:00,
2013-01-16 08:18:00,34.1,31.2,30.64,ENE,69,5.9,6.9,89,0.00,OVC,,0.00,29.9,WeatherDisplay:10.37,2013-01-16 16:18:00,
2013-01-16 08:23:00,34.1,31.2,30.64,ENE,61,7.9,8.1,89,0.00,OVC,,0.00,44.8,WeatherDisplay:10.37,2013-01-16 16:23:00,
2013-01-16 08:28:00,34.2,31.3,30.64,ENE,72,9.2,10.4,89,0.00,OVC,,0.00,52.9,WeatherDisplay:10.37,2013-01-16 16:28:00,
2013-01-16 08:33:00,34.3,31.4,30.64,ENE,60,7.0,8.1,89,0.00,OVC,,0.00,62.1,WeatherDisplay:10.37,2013-01-16 16:33:00,
2013-01-16 08:38:00,34.5,31.6,30.64,NE,55,6.0,6.9,89,0.00,OVC,,0.00,71.3,WeatherDisplay:10.37,2013-01-16 16:38:00,
2013-01-16 08:43:00,34.6,31.7,30.64,ENE,63,6.7,9.2,89,0.00,OVC,,0.00,82.8,WeatherDisplay:10.37,2013-01-16 16:43:00,
2013-01-16 08:48:00,34.7,31.5,30.64,ENE,63,8.0,10.4,88,0.00,OVC,,0.00,87.4,WeatherDisplay:10.37,2013-01-16 16:48:00,
2013-01-16 08:53:00,34.8,31.6,30.64,ENE,70,6.5,8.1,88,0.00,OVC,,0.00,74.8,WeatherDisplay:10.37,2013-01-16 16:53:00,
2013-01-16 08:58:00,34.8,31.6,30.64,East,92,8.6,10.4,88,0.00,OVC,,0.00,54.0,WeatherDisplay:10.37,2013-01-16 16:58:00,
2013-01-16 09:03:00,34.8,31.3,30.64,East,86,6.8,8.1,87,0.00,OVC,,0.00,52.9,WeatherDisplay:10.37,2013-01-16 17:03:00,
2013-01-16 09:08:00,34.8,31.3,30.64,East,86,7.5,8.1,87,0.00,OVC,,0.00,54.0,WeatherDisplay:10.37,2013-01-16 17:08:00,
2013-01-16 09:13:00,34.7,31.2,30.64,ENE,73,6.9,8.1,87,0.00,OVC,,0.00,44.8,WeatherDisplay:10.37,2013-01-16 17:13:00,
2013-01-16 09:18:00,34.6,30.9,30.64,ENE,72,8.0,8.1,86,0.00,OVC,,0.00,64.4,WeatherDisplay:10.37,2013-01-16 17:18:00,
2013-01-16 09:23:00,34.5,30.8,30.64,ENE,69,6.8,13.8,86,0.00,OVC,,0.00,74.8,WeatherDisplay:10.37,2013-01-16 17:23:00,
2013-01-16 09:28:00,34.4,30.7,30.64,ENE,67,10.9,12.4,86,0.00,OVC,,0.00,64.4,WeatherDisplay:10.37,2013-01-16 17:28:00,
2013-01-16 09:33:00,34.3,30.6,30.64,ENE,60,11.0,12.7,86,0.00,OVC,,0.00,66.7,WeatherDisplay:10.37,2013-01-16 17:33:00,
2013-01-16 09:38:00,34.2,30.5,30.64,ENE,71,9.9,11.5,86,0.00,OVC,,0.00,71.3,WeatherDisplay:10.37,2013-01-16 17:38:00,
2013-01-16 09:43:00,34.1,30.4,30.64,ENE,67,9.4,9.4,86,0.00,OVC,,0.00,85.1,WeatherDisplay:10.37,2013-01-16 17:43:00,
2013-01-16 09:48:00,34.2,30.5,30.64,ENE,65,10.0,12.7,86,0.00,OVC,,0.00,88.6,WeatherDisplay:10.37,2013-01-16 17:48:00,
2013-01-16 09:53:00,34.2,30.8,30.64,ENE,63,10.8,13.8,87,0.00,OVC,,0.00,96.6,WeatherDisplay:10.37,2013-01-16 17:53:00,
2013-01-16 09:58:00,34.3,30.9,30.64,ENE,65,12.0,12.7,87,0.00,OVC,,0.00,106.9,WeatherDisplay:10.37,2013-01-16 17:58:00,
2013-01-16 10:03:00,34.5,31.0,30.64,ENE,63,10.5,13.8,87,0.00,OVC,,0.00,120.8,WeatherDisplay:10.37,2013-01-16 18:03:00,
2013-01-16 10:08:00,34.6,31.1,30.64,ENE,73,9.7,12.7,87,0.00,OVC,,0.00,170.2,WeatherDisplay:10.37,2013-01-16 18:08:00,
2013-01-16 10:13:00,35.0,31.5,30.63,NE,46,11.3,11.5,87,0.00,OVC,,0.00,312.8,WeatherDisplay:10.37,2013-01-16 18:13:00,
2013-01-16 10:18:00,35.4,32.2,30.64,East,84,7.5,9.2,88,0.00,OVC,,0.00,208.1,WeatherDisplay:10.37,2013-01-16 18:18:00,
2013-01-16 10:23:00,35.7,32.2,30.64,NE,47,8.3,8.3,87,0.00,OVC,,0.00,228.9,WeatherDisplay:10.37,2013-01-16 18:23:00,
2013-01-16 10:28:00,36.0,32.5,30.63,NE,45,7.8,10.4,87,0.00,OVC,,0.00,216.2,WeatherDisplay:10.37,2013-01-16 18:28:00,
2013-01-16 10:33:00,36.4,32.9,30.63,East,83,6.8,8.1,87,0.00,OVC,,0.00,205.9,WeatherDisplay:10.37,2013-01-16 18:33:00,
2013-01-16 10:38:00,36.7,32.9,30.64,East,90,8.3,10.4,86,0.00,OVC,,0.00,202.4,WeatherDisplay:10.37,2013-01-16 18:38:00,
2013-01-16 10:43:00,37.0,33.2,30.64,ESE,102,7.3,9.2,86,0.00,OVC,,0.00,320.8,WeatherDisplay:10.37,2013-01-16 18:43:00,
2013-01-16 10:48:00,37.4,33.3,30.64,East,89,7.4,8.1,85,0.00,OVC,,0.00,448.5,WeatherDisplay:10.37,2013-01-16 18:48:00,
2013-01-16 10:53:00,38.0,33.9,30.63,ENE,70,8.9,9.2,85,0.00,OVC,,0.00,495.7,WeatherDisplay:10.37,2013-01-16 18:53:00,
2013-01-16 10:58:00,38.5,34.4,30.63,ENE,67,7.5,10.4,85,0.00,OVC,,0.00,402.5,WeatherDisplay:10.37,2013-01-16 18:58:00,
2013-01-16 11:03:00,39.1,34.7,30.63,ENE,60,9.9,12.7,84,0.00,OVC,,0.00,488.7,WeatherDisplay:10.37,2013-01-16 19:03:00,
2013-01-16 11:08:00,39.8,35.1,30.63,NE,53,10.1,12.7,83,0.00,OVC,,0.00,487.6,WeatherDisplay:10.37,2013-01-16 19:08:00,
2013-01-16 11:13:00,40.4,35.0,30.63,ENE,74,6.8,11.5,81,0.00,OVC,,0.00,438.2,WeatherDisplay:10.37,2013-01-16 19:13:00,
2013-01-16 11:18:00,40.8,34.8,30.63,NE,49,7.8,11.5,79,0.00,OVC,,0.00,446.2,WeatherDisplay:10.37,2013-01-16 19:18:00,
2013-01-16 11:23:00,41.2,34.9,30.62,NE,54,13.0,13.8,78,0.00,OVC,,0.00,426.7,WeatherDisplay:10.37,2013-01-16 19:23:00,
2013-01-16 11:28:00,41.6,35.3,30.62,NE,53,8.7,11.5,78,0.00,OVC,,0.00,422.0,WeatherDisplay:10.37,2013-01-16 19:28:00,
2013-01-16 11:33:00,41.9,35.2,30.62,NE,39,7.1,8.1,77,0.00,OVC,,0.00,392.2,WeatherDisplay:10.37,2013-01-16 19:33:00,
2013-01-16 11:38:00,42.3,35.3,30.62,NE,45,5.6,6.8,76,0.00,OVC,,0.00,388.7,WeatherDisplay:10.37,2013-01-16 19:38:00,
2013-01-16 11:43:00,42.5,35.2,30.62,NNW,339,4.4,6.9,75,0.00,OVC,,0.00,388.7,WeatherDisplay:10.37,2013-01-16 19:43:00,
2013-01-16 11:49:00,42.7,35.0,30.62,NNE,12,4.6,5.8,74,0.00,BKN,,0.00,386.4,WeatherDisplay:10.37,2013-01-16 19:49:00,
2013-01-16 11:54:00,42.9,34.9,30.62,SE,140,1.2,3.5,73,0.00,BKN,,0.00,388.7,WeatherDisplay:10.37,2013-01-16 19:54:00,
2013-01-16 11:59:00,42.9,34.9,30.62,ESE,117,0.0,0.0,73,0.00,BKN,,0.00,389.9,WeatherDisplay:10.37,2013-01-16 19:59:00,
2013-01-16 12:04:00,43.0,35.0,30.62,WSW,238,0.3,4.5,73,0.00,BKN,,0.00,386.4,WeatherDisplay:10.37,2013-01-16 20:04:00,
2013-01-16 12:09:00,43.1,35.1,30.61,North,359,0.8,3.5,73,0.00,BKN,,0.00,392.2,WeatherDisplay:10.37,2013-01-16 20:09:00,
2013-01-16 12:14:00,43.2,34.8,30.61,North,354,0.3,2.3,72,0.00,BKN,,0.00,394.4,WeatherDisplay:10.37,2013-01-16 20:14:00,
2013-01-16 12:19:00,43.3,34.5,30.61,NNW,327,3.7,5.8,71,0.00,BKN,,0.00,400.2,WeatherDisplay:10.37,2013-01-16 20:19:00,
2013-01-16 12:24:00,43.4,34.6,30.60,North,11,5.5,6.9,71,0.00,BKN,,0.00,396.7,WeatherDisplay:10.37,2013-01-16 20:24:00,
2013-01-16 12:29:00,43.6,35.2,30.60,NNW,327,6.1,8.1,72,0.00,BKN,,0.00,392.2,WeatherDisplay:10.37,2013-01-16 20:29:00,
2013-01-16 12:34:00,43.6,34.8,30.60,NNW,337,8.2,10.4,71,0.00,BKN,,0.00,291.0,WeatherDisplay:10.37,2013-01-16 20:34:00,
2013-01-16 12:39:00,43.6,34.8,30.60,NNW,333,6.7,8.1,71,0.00,BKN,,0.00,287.5,WeatherDisplay:10.37,2013-01-16 20:39:00,
2013-01-16 12:44:00,43.5,34.4,30.60,North,356,4.1,6.9,70,0.00,BKN,,0.00,378.3,WeatherDisplay:10.37,2013-01-16 20:44:00,
2013-01-16 12:49:00,43.5,34.7,30.60,NW,324,7.5,9.2,71,0.00,FEW,,0.00,397.9,WeatherDisplay:10.37,2013-01-16 20:49:00,
2013-01-16 12:54:00,43.5,34.7,30.60,NNW,329,6.3,8.1,71,0.00,FEW,,0.00,394.4,WeatherDisplay:10.37,2013-01-16 20:54:00,
2013-01-16 12:59:00,43.6,34.8,30.59,NNW,342,8.0,11.5,71,0.00,FEW,,0.00,392.2,WeatherDisplay:10.37,2013-01-16 20:59:00,
2013-01-16 13:04:00,43.6,34.8,30.59,NNW,327,9.3,11.5,71,0.00,CLR,,0.00,388.7,WeatherDisplay:10.37,2013-01-16 21:04:00,
2013-01-16 13:09:00,43.6,35.2,30.59,NW,317,8.4,10.4,72,0.00,CLR,,0.00,355.3,WeatherDisplay:10.37,2013-01-16 21:09:00,
2013-01-16 13:14:00,43.6,34.8,30.59,NNW,333,11.1,13.8,71,0.00,CLR,,0.00,378.3,WeatherDisplay:10.37,2013-01-16 21:14:00,
2013-01-16 13:19:00,43.6,35.2,30.59,NW,321,6.5,8.1,72,0.00,FEW,,0.00,378.3,WeatherDisplay:10.37,2013-01-16 21:19:00,
2013-01-16 13:24:00,43.6,35.2,30.59,NNW,328,9.0,10.4,72,0.00,FEW,,0.00,376.0,WeatherDisplay:10.37,2013-01-16 21:24:00,
2013-01-16 13:29:00,43.6,35.2,30.59,NNW,337,6.7,10.1,72,0.00,FEW,,0.00,368.0,WeatherDisplay:10.37,2013-01-16 21:29:00,
2013-01-16 13:34:00,43.6,35.2,30.59,North,2,8.4,11.5,72,0.00,FEW,,0.00,360.0,WeatherDisplay:10.37,2013-01-16 21:34:00,
2013-01-16 13:39:00,43.6,35.2,30.59,NNW,332,7.9,10.1,72,0.00,FEW,,0.00,355.3,WeatherDisplay:10.37,2013-01-16 21:39:00,
2013-01-16 13:44:00,43.6,35.2,30.59,NNW,331,5.7,10.4,72,0.00,FEW,,0.00,349.6,WeatherDisplay:10.37,2013-01-16 21:44:00,
2013-01-16 13:49:00,43.7,35.6,30.59,NNW,340,5.0,6.9,73,0.00,SCT,,0.00,343.8,WeatherDisplay:10.37,2013-01-16 21:49:00,
2013-01-16 13:54:00,43.7,35.6,30.58,NW,316,7.9,9.2,73,0.00,SCT,,0.00,333.5,WeatherDisplay:10.37,2013-01-16 21:54:00,
2013-01-16 13:59:00,43.7,35.3,30.58,NNW,337,6.8,8.1,72,0.00,SCT,,0.00,325.5,WeatherDisplay:10.37,2013-01-16 21:59:00,
2013-01-16 14:04:00,43.8,35.4,30.58,NNW,334,11.1,12.7,72,0.00,FEW,,0.00,317.4,WeatherDisplay:10.37,2013-01-16 22:04:00,
2013-01-16 14:09:00,43.6,34.8,30.58,NW,321,5.0,10.4,71,0.00,FEW,,0.00,309.4,WeatherDisplay:10.37,2013-01-16 22:09:00,
2013-01-16 14:14:00,43.6,34.8,30.58,NNW,339,6.7,9.2,71,0.00,FEW,,0.00,303.6,WeatherDisplay:10.37,2013-01-16 22:14:00,
2013-01-16 14:19:00,43.6,35.2,30.58,NNW,335,4.8,6.9,72,0.00,CLR,,0.00,295.5,WeatherDisplay:10.37,2013-01-16 22:19:00,
2013-01-16 14:24:00,43.6,34.8,30.58,NW,325,8.0,11.5,71,0.00,CLR,,0.00,287.5,WeatherDisplay:10.37,2013-01-16 22:24:00,
2013-01-16 14:29:00,43.5,34.7,30.58,NW,324,8.5,11.5,71,0.00,CLR,,0.00,272.5,WeatherDisplay:10.37,2013-01-16 22:29:00,
2013-01-16 14:34:00,43.5,35.1,30.58,NNW,335,9.1,10.4,72,0.00,CLR,,0.00,264.5,WeatherDisplay:10.37,2013-01-16 22:34:00,
2013-01-16 14:39:00,43.5,35.1,30.58,North,356,9.2,10.4,72,0.00,CLR,,0.00,258.8,WeatherDisplay:10.37,2013-01-16 22:39:00,
2013-01-16 14:44:00,43.4,34.6,30.58,NNW,330,10.3,11.5,71,0.00,CLR,,0.00,240.3,WeatherDisplay:10.37,2013-01-16 22:44:00,
2013-01-16 14:49:00,43.3,34.5,30.58,NW,321,8.1,8.1,71,0.00,CLR,,0.00,232.3,WeatherDisplay:10.37,2013-01-16 22:49:00,
2013-01-16 14:54:00,43.2,34.4,30.58,NNW,334,6.4,8.1,71,0.00,CLR,,0.00,226.6,WeatherDisplay:10.37,2013-01-16 22:54:00,
2013-01-16 14:59:00,43.1,34.7,30.58,NNW,331,6.3,9.2,72,0.00,CLR,,0.00,213.9,WeatherDisplay:10.37,2013-01-16 22:59:00,
2013-01-16 15:04:00,43.0,34.6,30.58,North,357,7.7,10.4,72,0.00,CLR,,0.00,205.9,WeatherDisplay:10.37,2013-01-16 23:04:00,
2013-01-16 15:09:00,42.9,34.5,30.58,NNW,340,6.6,10.4,72,0.00,CLR,,0.00,194.4,WeatherDisplay:10.37,2013-01-16 23:09:00,
2013-01-16 15:14:00,42.8,34.4,30.58,NW,325,5.2,8.1,72,0.00,CLR,,0.00,181.7,WeatherDisplay:10.37,2013-01-16 23:14:00,
2013-01-16 15:19:00,42.7,34.3,30.58,NNW,331,6.5,10.4,72,0.00,CLR,,0.00,170.2,WeatherDisplay:10.37,2013-01-16 23:19:00,
2013-01-16 15:24:00,42.6,34.2,30.58,NNW,336,5.6,8.1,72,0.00,CLR,,0.00,157.6,WeatherDisplay:10.37,2013-01-16 23:24:00,
2013-01-16 15:29:00,42.5,34.1,30.57,NNW,331,9.3,11.5,72,0.00,CLR,,0.00,151.8,WeatherDisplay:10.37,2013-01-16 23:29:00,
2013-01-16 15:34:00,42.4,34.0,30.58,North,359,8.1,11.5,72,0.00,CLR,,0.00,135.7,WeatherDisplay:10.37,2013-01-16 23:34:00,
2013-01-16 15:39:00,42.2,33.8,30.58,NW,324,8.5,11.5,72,0.00,CLR,,0.00,123.1,WeatherDisplay:10.37,2013-01-16 23:39:00,
2013-01-16 15:44:00,42.0,33.6,30.57,NNW,338,7.3,11.5,72,0.00,CLR,,0.00,112.7,WeatherDisplay:10.37,2013-01-16 23:44:00,
2013-01-16 15:49:00,41.8,33.8,30.57,NNW,344,5.0,8.1,73,0.00,CLR,,0.00,98.9,WeatherDisplay:10.37,2013-01-16 23:49:00,
2013-01-16 15:54:00,41.8,33.8,30.57,NNW,330,6.2,8.1,73,0.00,CLR,,0.00,90.8,WeatherDisplay:10.37,2013-01-16 23:54:00,
2013-01-16 15:59:00,41.7,33.7,30.57,North,2,5.1,6.9,73,0.00,CLR,,0.00,79.4,WeatherDisplay:10.37,2013-01-16 23:59:00,
2013-01-16 16:04:00,41.5,33.5,30.57,NNW,333,6.0,7.8,73,0.00,FEW,,0.00,66.7,WeatherDisplay:10.37,2013-01-17 00:04:00,
2013-01-16 16:09:00,41.4,33.8,30.57,NNW,341,6.8,6.9,74,0.00,FEW,,0.00,54.0,WeatherDisplay:10.37,2013-01-17 00:09:00,
2013-01-16 16:14:00,41.2,33.6,30.57,North,11,2.4,6.9,74,0.00,FEW,,0.00,44.8,WeatherDisplay:10.37,2013-01-17 00:14:00,
2013-01-16 16:19:00,41.0,33.4,30.57,NNE,19,4.4,5.8,74,0.00,SCT,,0.00,37.9,WeatherDisplay:10.37,2013-01-17 00:19:00,
2013-01-16 16:24:00,40.8,33.2,30.57,NNE,19,3.7,5.7,74,0.00,SCT,,0.00,24.2,WeatherDisplay:10.37,2013-01-17 00:24:00,
2013-01-16 16:29:00,40.5,32.5,30.57,NNE,17,5.9,5.9,73,0.00,SCT,,0.00,20.7,WeatherDisplay:10.37,2013-01-17 00:29:00,
2013-01-16 16:34:00,40.3,32.3,30.57,NNE,17,4.2,5.7,73,0.00,SCT,,0.00,16.1,WeatherDisplay:10.37,2013-01-17 00:34:00,
2013-01-16 16:39:00,40.0,32.1,30.57,NNE,20,5.5,5.8,73,0.00,SCT,,0.00,12.6,WeatherDisplay:10.37,2013-01-17 00:39:00,
2013-01-16 16:44:00,39.6,31.7,30.58,NNE,20,4.1,4.6,73,0.00,SCT,,0.00,10.4,WeatherDisplay:10.37,2013-01-17 00:44:00,
2013-01-16 16:49:00,39.2,31.6,30.58,NNE,20,2.8,3.5,74,0.00,FEW,,0.00,8.0,WeatherDisplay:10.37,2013-01-17 00:49:00,
2013-01-16 16:54:00,38.8,31.2,30.58,NNE,24,4.0,4.6,74,0.00,FEW,,0.00,8.0,WeatherDisplay:10.37,2013-01-17 00:54:00,
2013-01-16 16:59:00,38.4,30.9,30.58,NNE,29,4.5,5.8,74,0.00,FEW,,0.00,5.8,WeatherDisplay:10.37,2013-01-17 00:59:00,
2013-01-16 17:04:00,38.1,30.9,30.57,NNE,29,5.1,5.8,75,0.00,FEW,,0.00,0.0,WeatherDisplay:10.37,2013-01-17 01:04:00,
2013-01-16 17:10:00,37.8,30.9,30.57,NNE,29,4.5,4.6,76,0.00,FEW,,0.00,0.0,WeatherDisplay:10.37,2013-01-17 01:10:00,
2013-01-16 17:15:00,37.5,30.6,30.57,NNE,29,2.8,3.4,76,0.00,FEW,,0.00,0.0,WeatherDisplay:10.37,2013-01-17 01:15:00,
2013-01-16 17:20:00,37.2,30.3,30.57,NNE,29,3.2,4.6,76,0.00,CLR,,0.00,0.0,WeatherDisplay:10.37,2013-01-17 01:20:00,
2013-01-16 17:25:00,36.9,30.1,30.57,NNE,29,4.4,5.8,76,0.00,CLR,,0.00,0.0,WeatherDisplay:10.37,2013-01-17 01:25:00,
2013-01-16 17:30:00,36.6,30.1,30.57,NNE,24,4.3,4.6,77,0.00,CLR,,0.00,0.0,WeatherDisplay:10.37,2013-01-17 01:30:00,
2013-01-16 17:35:00,36.4,29.9,30.57,North,10,4.5,5.8,77,0.00,CLR,,0.00,0.0,WeatherDisplay:10.37,2013-01-17 01:35:00,
2013-01-16 17:40:00,36.2,29.7,30.57,North,4,3.9,4.6,77,0.00,CLR,,0.00,0.0,WeatherDisplay:10.37,2013-01-17 01:40:00,
2013-01-16 17:45:00,35.9,29.7,30.57,North,4,1.8,3.5,78,0.00,CLR,,0.00,0.0,WeatherDisplay:10.37,2013-01-17 01:45:00,
2013-01-16 17:50:00,35.7,29.5,30.57,NNE,24,4.1,4.6,78,0.00,SCT,,0.00,0.0,WeatherDisplay:10.37,2013-01-17 01:50:00,
2013-01-16 17:55:00,35.4,29.2,30.57,NNE,24,6.0,6.0,78,0.00,SCT,,0.00,0.0,WeatherDisplay:10.37,2013-01-17 01:55:00,
2013-01-16 18:00:00,35.1,29.3,30.57,NE,34,5.4,6.9,79,0.00,SCT,,0.00,0.0,WeatherDisplay:10.37,2013-01-17 02:00:00,
2013-01-16 18:05:00,34.9,29.4,30.57,NNE,24,6.4,6.9,80,0.00,BKN,,0.00,0.0,WeatherDisplay:10.37,2013-01-17 02:05:00,
2013-01-16 18:10:00,34.8,29.6,30.57,NNE,18,4.0,4.6,81,0.00,BKN,,0.00,0.0,WeatherDisplay:10.37,2013-01-17 02:10:00,
2013-01-16 18:15:00,34.6,29.4,30.57,NNE,19,3.0,5.0,81,0.00,BKN,,0.00,0.0,WeatherDisplay:10.37,2013-01-17 02:15:00,
2013-01-16 18:20:00,34.5,29.3,30.57,NNE,16,5.0,6.0,81,0.00,BKN,,0.00,0.0,WeatherDisplay:10.37,2013-01-17 02:20:00,
2013-01-16 18:25:00,34.4,29.2,30.57,NNE,17,7.0,7.0,81,0.00,BKN,,0.00,0.0,WeatherDisplay:10.37,2013-01-17 02:25:00,
2013-01-16 18:30:00,34.2,29.3,30.56,North,9,7.2,7.2,82,0.00,BKN,,0.00,0.0,WeatherDisplay:10.37,2013-01-17 02:30:00,
2013-01-16 18:35:00,34.1,29.2,30.56,North,4,6.2,6.2,82,0.00,BKN,,0.00,0.0,WeatherDisplay:10.37,2013-01-17 02:35:00,
2013-01-16 18:40:00,34.1,29.2,30.56,North,352,7.0,8.1,82,0.00,BKN,,0.00,0.0,WeatherDisplay:10.37,2013-01-17 02:40:00,
2013-01-16 18:45:00,34.0,29.4,30.56,North,3,5.0,8.0,83,0.00,BKN,,0.00,0.0,WeatherDisplay:10.37,2013-01-17 02:45:00,
2013-01-16 18:50:00,33.9,29.3,30.56,North,5,2.7,4.6,83,0.00,BKN,,0.00,0.0,WeatherDisplay:10.37,2013-01-17 02:50:00,
2013-01-16 18:55:00,33.9,29.3,30.56,North,358,5.0,6.0,83,0.00,BKN,,0.00,0.0,WeatherDisplay:10.37,2013-01-17 02:55:00,
2013-01-16 19:00:00,33.8,29.2,30.56,NNW,347,3.8,3.8,83,0.00,BKN,,0.00,0.0,WeatherDisplay:10.37,2013-01-17 03:00:00,
2013-01-16 19:05:00,33.7,29.1,30.56,NNW,347,3.0,5.0,83,0.00,BKN,,0.00,0.0,WeatherDisplay:10.37,2013-01-17 03:05:00,
2013-01-16 19:10:00,33.6,29.0,30.56,North,357,3.4,5.8,83,0.00,BKN,,0.00,0.0,WeatherDisplay:10.37,2013-01-17 03:10:00,
2013-01-16 19:15:00,33.5,28.9,30.56,North,0,5.7,5.8,83,0.00,BKN,,0.00,0.0,WeatherDisplay:10.37,2013-01-17 03:15:00,
2013-01-16 19:20:00,33.3,28.7,30.56,North,0,4.1,4.6,83,0.00,OVC,,0.00,0.0,WeatherDisplay:10.37,2013-01-17 03:20:00,
2013-01-16 19:25:00,33.1,28.5,30.56,North,0,5.0,6.0,83,0.00,OVC,,0.00,0.0,WeatherDisplay:10.37,2013-01-17 03:25:00,
2013-01-16 19:30:00,32.9,28.0,30.56,North,0,2.0,3.4,82,0.00,OVC,,0.00,0.0,WeatherDisplay:10.37,2013-01-17 03:30:00,
2013-01-16 19:35:00,32.7,27.8,30.56,North,4,5.0,6.0,82,0.00,OVC,,0.00,0.0,WeatherDisplay:10.37,2013-01-17 03:35:00,
2013-01-16 19:40:00,32.5,27.6,30.56,North,11,6.0,7.0,82,0.00,OVC,,0.00,0.0,WeatherDisplay:10.37,2013-01-17 03:40:00,
2013-01-16 19:45:00,32.2,27.3,30.55,NNE,24,5.4,6.9,82,0.00,OVC,,0.00,0.0,WeatherDisplay:10.37,2013-01-17 03:45:00,
2013-01-16 19:50:00,32.1,27.5,30.54,NNE,12,6.0,7.0,83,0.00,BKN,,0.00,0.0,WeatherDisplay:10.37,2013-01-17 03:50:00,
2013-01-16 19:55:00,31.9,27.6,30.54,North,9,5.1,5.8,84,0.00,BKN,,0.00,0.0,WeatherDisplay:10.37,2013-01-17 03:55:00,
2013-01-16 20:00:00,31.9,27.6,30.54,North,9,2.3,3.5,84,0.00,BKN,,0.00,0.0,WeatherDisplay:10.37,2013-01-17 04:00:00,
2013-01-16 20:05:00,31.8,27.5,30.54,North,9,3.0,6.0,84,0.00,CLR,,0.00,0.0,WeatherDisplay:10.37,2013-01-17 04:05:00,
2013-01-16 20:10:00,31.8,27.8,30.54,North,9,3.1,3.5,85,0.00,CLR,,0.00,0.0,WeatherDisplay:10.37,2013-01-17 04:10:00,
2013-01-16 20:15:00,31.7,27.7,30.54,North,9,0.0,0.0,85,0.00,CLR,,0.00,0.0,WeatherDisplay:10.37,2013-01-17 04:15:00,
2013-01-16 20:20:00,31.7,27.7,30.54,North,9,0.0,2.0,85,0.00,CLR,,0.00,0.0,WeatherDisplay:10.37,2013-01-17 04:20:00,
2013-01-16 20:25:00,31.5,27.5,30.54,North,9,0.6,2.3,85,0.00,CLR,,0.00,0.0,WeatherDisplay:10.37,2013-01-17 04:25:00,
2013-01-16 20:30:00,31.4,27.4,30.54,North,9,0.0,0.0,85,0.00,CLR,,0.00,0.0,WeatherDisplay:10.37,2013-01-17 04:30:00,
2013-01-16 20:35:00,31.3,27.3,30.54,North,9,1.0,2.0,85,0.00,CLR,,0.00,0.0,WeatherDisplay:10.37,2013-01-17 04:35:00,
2013-01-16 20:40:00,31.1,27.1,30.54,North,9,2.6,3.5,85,0.00,CLR,,0.00,0.0,WeatherDisplay:10.37,2013-01-17 04:40:00,
2013-01-16 20:45:00,30.9,26.9,30.54,North,9,3.0,6.0,85,0.00,CLR,,0.00,0.0,WeatherDisplay:10.37,2013-01-17 04:45:00,
2013-01-16 20:50:00,30.7,26.7,30.54,North,9,3.5,4.5,85,0.00,CLR,,0.00,0.0,WeatherDisplay:10.37,2013-01-17 04:50:00,
2013-01-16 20:55:00,30.5,26.3,30.53,North,11,4.6,5.8,84,0.00,CLR,,0.00,0.0,WeatherDisplay:10.37,2013-01-17 04:55:00,
2013-01-16 21:00:00,30.4,26.4,30.53,North,8,5.0,7.0,85,0.00,CLR,,0.00,0.0,WeatherDisplay:10.37,2013-01-17 05:00:00,
2013-01-16 21:01:00,30.3,26.4,30.53,North,0,4.4,5.8,85,0.00,CLR,,0.00,0.0,WeatherDisplay:10.37,2013-01-17 05:01:00,
2013-01-16 21:03:00,30.3,26.4,30.53,North,6,5.8,5.8,85,0.00,CLR,,0.00,0.0,WeatherDisplay:10.37,2013-01-17 05:03:00,
2013-01-16 21:08:00,30.2,26.5,30.54,North,6,6.4,6.9,86,0.00,CLR,,0.00,0.0,WeatherDisplay:10.37,2013-01-17 05:08:00,
2013-01-16 21:13:00,30.3,26.9,30.54,North,0,3.5,4.6,87,0.00,CLR,,0.00,0.0,WeatherDisplay:10.37,2013-01-17 05:13:00,
2013-01-16 21:18:00,30.4,27.0,30.54,North,7,5.0,6.8,87,0.00,CLR,,0.00,0.0,WeatherDisplay:10.37,2013-01-17 05:18:00,
2013-01-16 21:23:00,30.4,27.3,30.54,North,7,4.3,4.6,88,0.00,CLR,,0.00,0.0,WeatherDisplay:10.37,2013-01-17 05:23:00,
2013-01-16 21:28:00,30.5,27.4,30.54,North,11,3.8,4.6,88,0.00,CLR,,0.00,0.0,WeatherDisplay:10.37,2013-01-17 05:28:00,
2013-01-16 21:33:00,30.6,27.5,30.54,NNE,15,4.2,4.6,88,0.00,CLR,,0.00,0.0,WeatherDisplay:10.37,2013-01-17 05:33:00,
2013-01-16 21:38:00,30.6,27.5,30.54,NNE,18,5.6,5.8,88,0.00,CLR,,0.00,0.0,WeatherDisplay:10.37,2013-01-17 05:38:00,
2013-01-16 21:43:00,30.7,27.6,30.53,NNE,24,5.0,5.8,88,0.00,CLR,,0.00,0.0,WeatherDisplay:10.37,2013-01-17 05:43:00,
2013-01-16 21:48:00,30.8,27.7,30.53,NNE,24,4.1,5.8,88,0.00,CLR,,0.00,0.0,WeatherDisplay:10.37,2013-01-17 05:48:00,
2013-01-16 21:53:00,30.8,28.0,30.53,NNE,29,2.9,3.5,89,0.00,CLR,,0.00,0.0,WeatherDisplay:10.37,2013-01-17 05:53:00,
2013-01-16 21:58:00,30.8,27.7,30.53,NNE,29,0.0,0.0,88,0.00,CLR,,0.00,0.0,WeatherDisplay:10.37,2013-01-17 05:58:00,
2013-01-16 22:03:00,30.8,27.7,30.53,NNE,29,0.0,0.0,88,0.00,CLR,,0.00,0.0,WeatherDisplay:10.37,2013-01-17 06:03:00,
2013-01-16 22:08:00,30.8,27.7,30.53,NNE,29,1.2,2.3,88,0.00,CLR,,0.00,0.0,WeatherDisplay:10.37,2013-01-17 06:08:00,
2013-01-16 22:13:00,30.7,27.6,30.53,NNE,29,0.6,2.3,88,0.00,CLR,,0.00,0.0,WeatherDisplay:10.37,2013-01-17 06:13:00,
2013-01-16 22:18:00,30.5,27.4,30.53,NNE,24,2.2,3.4,88,0.00,CLR,,0.00,0.0,WeatherDisplay:10.37,2013-01-17 06:18:00,
2013-01-16 22:23:00,30.4,27.3,30.53,NE,34,0.7,3.5,88,0.00,CLR,,0.00,0.0,WeatherDisplay:10.37,2013-01-17 06:23:00,
2013-01-16 22:28:00,30.3,27.2,30.53,NE,34,3.3,4.6,88,0.00,CLR,,0.00,0.0,WeatherDisplay:10.37,2013-01-17 06:28:00,
2013-01-16 22:33:00,30.1,27.0,30.52,NE,34,0.0,0.0,88,0.00,CLR,,0.00,0.0,WeatherDisplay:10.37,2013-01-17 06:33:00,
2013-01-16 22:38:00,30.0,26.9,30.52,NE,34,0.0,0.0,88,0.00,CLR,,0.00,0.0,WeatherDisplay:10.37,2013-01-17 06:38:00,
2013-01-16 22:43:00,29.9,26.8,30.52,NE,34,0.0,0.0,88,0.00,CLR,,0.00,0.0,WeatherDisplay:10.37,2013-01-17 06:43:00,
2013-01-16 22:48:00,29.8,26.7,30.53,NE,34,0.0,0.0,88,0.00,CLR,,0.00,0.0,WeatherDisplay:10.37,2013-01-17 06:48:00,
2013-01-16 22:53:00,29.7,26.6,30.53,NE,34,0.0,0.0,88,0.00,CLR,,0.00,0.0,WeatherDisplay:10.37,2013-01-17 06:53:00,
2013-01-16 22:58:00,29.5,26.4,30.53,NE,34,0.0,0.0,88,0.00,CLR,,0.00,0.0,WeatherDisplay:10.37,2013-01-17 06:58:00,
2013-01-16 23:03:00,29.5,26.4,30.53,NE,34,0.0,1.1,88,0.00,CLR,,0.00,0.0,WeatherDisplay:10.37,2013-01-17 07:03:00,
2013-01-16 23:08:00,29.4,26.3,30.53,NE,34,0.0,0.0,88,0.00,CLR,,0.00,0.0,WeatherDisplay:10.37,2013-01-17 07:08:00,
2013-01-16 23:13:00,29.3,26.2,30.53,NE,34,0.0,0.0,88,0.00,CLR,,0.00,0.0,WeatherDisplay:10.37,2013-01-17 07:13:00,
2013-01-16 23:18:00,29.2,26.1,30.53,NE,34,0.0,0.0,88,0.00,CLR,,0.00,0.0,WeatherDisplay:10.37,2013-01-17 07:18:00,
2013-01-16 23:23:00,29.1,26.0,30.53,NE,34,0.0,0.0,88,0.00,CLR,,0.00,0.0,WeatherDisplay:10.37,2013-01-17 07:23:00,
2013-01-16 23:28:00,29.0,25.9,30.53,NE,34,0.0,0.0,88,0.00,CLR,,0.00,0.0,WeatherDisplay:10.37,2013-01-17 07:28:00,
2013-01-16 23:33:00,29.0,26.2,30.53,NNE,24,3.4,4.6,89,0.00,CLR,,0.00,0.0,WeatherDisplay:10.37,2013-01-17 07:33:00,
2013-01-16 23:38:00,29.0,26.2,30.53,North,354,3.9,3.9,89,0.00,CLR,,0.00,0.0,WeatherDisplay:10.37,2013-01-17 07:38:00,
2013-01-16 23:43:00,29.0,26.2,30.53,North,0,5.5,5.8,89,0.00,CLR,,0.00,0.0,WeatherDisplay:10.37,2013-01-17 07:43:00,
2013-01-16 23:48:00,29.0,26.5,30.53,NNE,24,5.6,6.9,90,0.00,CLR,,0.00,0.0,WeatherDisplay:10.37,2013-01-17 07:48:00,
2013-01-16 23:53:00,29.2,26.7,30.53,North,9,3.6,4.6,90,0.00,CLR,,0.00,0.0,WeatherDisplay:10.37,2013-01-17 07:53:00,
2013-01-16 23:58:00,29.2,26.7,30.53,NNE,12,3.8,4.6,90,0.00,CLR,,0.00,0.0,WeatherDisplay:10.37,2013-01-17 07:58:00,